{"data":{"norad_id":61066,"intl_designator":"2024-164S","name":"STARLINK-32381","alt_names":[],"object_type":"PAYLOAD","status":"ACTIVE","operator":null,"country":"US","launch_date":"2024-09-13","launch_site_code":"AFWTR","launch_vehicle":null,"mission":null,"orbit_class":"UNKNOWN","rcs_meters":null,"size_class":null,"mass_kg":null,"dimensions":null,"purposes":["comms"],"wikipedia_slug":null,"has_3d_model":false,"image_url":null,"decayed_at":null,"tle_current":{"epoch":"2026-05-25T02:29:36.265344Z","epoch_age_seconds":66408,"freshness":"FRESH","line1":"1 61066U 24164S   26145.10389196  .00000165  00000+0  17684-4 0  9992","line2":"2 61066  53.1608  96.4104 0001226  97.8346 262.2794 15.30193674 95179","mean_motion":15.30193674,"eccentricity":0.0001226,"inclination_deg":53.1608,"raan_deg":96.4104,"arg_perigee_deg":97.8346,"mean_anomaly_deg":262.2794,"bstar":1.7684e-5,"rev_number":9517,"period_min":94.105734748973,"perigee_km":474.3937345007,"apogee_km":476.07418105955,"semimajor_km":6853.3709577801,"source":"CELESTRAK","updated_at":"2026-05-25T13:38:19.356930Z"}}}